Time,TemperatureF,DewpointF,PressureIn,WindDirection,WindDirectionDegrees,WindSpeedMPH,WindSpeedGustMPH,Humidity,HourlyPrecipIn,Conditions,Clouds,dailyrainin,SoftwareType,DateUTC
2013-04-12 00:04:00,77.8,61.3,29.76,NNE,23,2.5,4.7,57,0.00,,,0.00,WUHU216HW,2013-04-11 21:04:00,
2013-04-12 00:09:00,77.8,61.8,29.76,North,0,1.8,4.9,58,0.00,,,0.00,WUHU216HW,2013-04-11 21:09:00,
2013-04-12 00:14:00,77.8,61.8,29.76,North,0,3.8,4.9,58,0.00,,,0.00,WUHU216HW,2013-04-11 21:14:00,
2013-04-12 00:19:00,77.8,61.8,29.76,NNE,23,3.6,4.7,58,0.00,,,0.00,WUHU216HW,2013-04-11 21:19:00,
2013-04-12 00:24:00,77.6,61.7,29.76,North,0,3.1,4.7,58,0.00,,,0.00,WUHU216HW,2013-04-11 21:24:00,
2013-04-12 00:29:00,77.6,61.7,29.76,ENE,68,1.8,4.7,58,0.00,,,0.00,WUHU216HW,2013-04-11 21:29:00,
2013-04-12 00:35:00,77.6,62.1,29.76,NNE,23,2.9,5.6,59,0.00,,,0.00,WUHU216HW,2013-04-11 21:35:00,
2013-04-12 00:40:00,77.6,62.1,29.76,North,0,2.2,6.3,59,0.00,,,0.00,WUHU216HW,2013-04-11 21:40:00,
2013-04-12 00:45:00,77.6,62.1,29.76,NNE,23,3.1,6.3,59,0.00,,,0.00,WUHU216HW,2013-04-11 21:45:00,
2013-04-12 00:50:00,77.4,61.5,29.76,North,0,1.6,6.3,58,0.00,,,0.00,WUHU216HW,2013-04-11 21:50:00,
2013-04-12 00:55:00,77.4,61.5,29.75,NNE,23,3.4,4.9,58,0.00,,,0.00,WUHU216HW,2013-04-11 21:55:00,
2013-04-12 01:00:00,77.6,60.6,29.75,ENE,68,2.0,5.1,56,0.00,,,0.00,WUHU216HW,2013-04-11 22:00:00,
2013-04-12 01:05:00,77.8,60.8,29.75,NE,45,2.9,5.1,56,0.00,,,0.00,WUHU216HW,2013-04-11 22:05:00,
2013-04-12 01:10:00,77.8,60.8,29.75,NNE,23,3.1,5.6,56,0.00,,,0.00,WUHU216HW,2013-04-11 22:10:00,
2013-04-12 01:15:00,77.8,60.8,29.75,NNE,23,8.5,8.5,56,0.00,,,0.00,WUHU216HW,2013-04-11 22:15:00,
2013-04-12 01:20:00,77.8,60.8,29.75,NE,45,5.6,9.4,56,0.00,,,0.00,WUHU216HW,2013-04-11 22:20:00,
2013-04-12 01:25:00,77.8,60.8,29.75,NE,45,1.1,9.4,56,0.00,,,0.00,WUHU216HW,2013-04-11 22:25:00,
2013-04-12 01:30:00,77.8,60.8,29.75,NNE,23,2.5,5.8,56,0.00,,,0.00,WUHU216HW,2013-04-11 22:30:00,
2013-04-12 01:35:00,77.8,60.8,29.75,NE,45,2.9,6.3,56,0.00,,,0.00,WUHU216HW,2013-04-11 22:35:00,
2013-04-12 01:40:00,77.8,60.8,29.75,North,0,5.4,7.6,56,0.00,,,0.00,WUHU216HW,2013-04-11 22:40:00,
2013-04-12 01:45:00,77.8,60.8,29.75,NE,45,2.9,7.6,56,0.00,,,0.00,WUHU216HW,2013-04-11 22:45:00,
2013-04-12 01:50:00,77.8,60.8,29.75,North,0,3.1,5.4,56,0.00,,,0.00,WUHU216HW,2013-04-11 22:50:00,
2013-04-12 01:55:00,77.8,60.8,29.75,North,0,2.7,7.8,56,0.00,,,0.00,WUHU216HW,2013-04-11 22:55:00,
2013-04-12 02:00:00,77.8,60.8,29.75,North,0,4.5,7.8,56,0.00,,,0.00,WUHU216HW,2013-04-11 23:00:00,
2013-04-12 02:05:00,77.8,60.8,29.74,NNE,23,6.3,6.9,56,0.00,,,0.00,WUHU216HW,2013-04-11 23:05:00,
2013-04-12 02:10:00,77.8,61.3,29.74,NNE,23,4.7,7.6,57,0.00,,,0.00,WUHU216HW,2013-04-11 23:10:00,
2013-04-12 02:15:00,77.6,61.1,29.74,North,0,4.0,7.6,57,0.00,,,0.00,WUHU216HW,2013-04-11 23:15:00,
2013-04-12 02:20:00,77.4,60.9,29.74,North,0,4.3,4.9,57,0.00,,,0.00,WUHU216HW,2013-04-11 23:20:00,
2013-04-12 02:25:00,77.4,60.9,29.74,NNE,23,4.0,5.4,57,0.00,,,0.00,WUHU216HW,2013-04-11 23:25:00,
2013-04-12 02:30:00,77.4,60.9,29.73,East,90,3.4,5.4,57,0.00,,,0.00,WUHU216HW,2013-04-11 23:30:00,
2013-04-12 02:35:00,77.4,60.9,29.73,ESE,113,3.4,6.9,57,0.00,,,0.00,WUHU216HW,2013-04-11 23:35:00,
2013-04-12 02:40:00,77.4,60.9,29.73,ENE,68,4.9,6.9,57,0.00,,,0.00,WUHU216HW,2013-04-11 23:40:00,
2013-04-12 02:45:00,77.4,60.9,29.73,ESE,113,3.1,5.8,57,0.00,,,0.00,WUHU216HW,2013-04-11 23:45:00,
2013-04-12 02:50:00,77.4,61.5,29.73,WSW,248,4.0,7.2,58,0.00,,,0.00,WUHU216HW,2013-04-11 23:50:00,
2013-04-12 02:55:00,77.4,61.5,29.73,ENE,68,3.1,7.2,58,0.00,,,0.00,WUHU216HW,2013-04-11 23:55:00,
2013-04-12 03:00:00,77.4,62.5,29.73,NE,45,3.4,7.2,60,0.00,,,0.00,WUHU216HW,2013-04-12 00:00:00,
2013-04-12 03:05:00,77.4,62.9,29.74,NNE,23,3.1,7.2,61,0.00,,,0.00,WUHU216HW,2013-04-12 00:05:00,
2013-04-12 03:10:00,77.2,63.2,29.74,NE,45,3.4,9.2,62,0.00,,,0.00,WUHU216HW,2013-04-12 00:10:00,
2013-04-12 03:15:00,77.0,63.0,29.75,NW,315,2.2,9.2,62,0.00,,,0.00,WUHU216HW,2013-04-12 00:15:00,
2013-04-12 03:20:00,77.0,63.0,29.75,North,0,5.4,6.9,62,0.00,,,0.00,WUHU216HW,2013-04-12 00:20:00,
2013-04-12 03:25:00,77.0,63.0,29.75,North,0,5.4,6.9,62,0.00,,,0.00,WUHU216HW,2013-04-12 00:25:00,
2013-04-12 03:30:00,77.0,63.5,29.75,North,0,4.7,6.3,63,0.00,,,0.00,WUHU216HW,2013-04-12 00:30:00,
2013-04-12 03:35:00,76.9,63.3,29.75,North,0,1.8,5.4,63,0.00,,,0.00,WUHU216HW,2013-04-12 00:35:00,
2013-04-12 03:40:00,76.9,63.7,29.75,NNE,23,4.0,6.3,64,0.00,,,0.00,WUHU216HW,2013-04-12 00:40:00,
2013-04-12 03:45:00,76.9,64.2,29.75,NNW,338,2.5,7.6,65,0.00,,,0.00,WUHU216HW,2013-04-12 00:45:00,
2013-04-12 03:50:00,76.7,64.0,29.75,NNE,23,4.5,7.6,65,0.00,,,0.00,WUHU216HW,2013-04-12 00:50:00,
2013-04-12 03:55:00,76.7,64.4,29.76,North,0,1.1,7.6,66,0.00,,,0.00,WUHU216HW,2013-04-12 00:55:00,
2013-04-12 04:00:00,76.7,64.4,29.76,NNE,23,5.4,7.6,66,0.00,,,0.00,WUHU216HW,2013-04-12 01:00:00,
2013-04-12 04:05:00,76.7,64.9,29.76,NNE,23,3.4,5.6,67,0.00,,,0.00,WUHU216HW,2013-04-12 01:05:00,
2013-04-12 04:10:00,76.5,64.7,29.76,North,0,4.0,6.7,67,0.00,,,0.00,WUHU216HW,2013-04-12 01:10:00,
2013-04-12 04:15:00,76.5,64.7,29.76,NNE,23,2.7,6.7,67,0.00,,,0.00,WUHU216HW,2013-04-12 01:15:00,
2013-04-12 04:20:00,76.5,64.7,29.76,North,0,2.9,4.7,67,0.00,,,0.00,WUHU216HW,2013-04-12 01:20:00,
2013-04-12 04:25:00,76.3,64.5,29.76,North,0,2.7,6.3,67,0.00,,,0.00,WUHU216HW,2013-04-12 01:25:00,
2013-04-12 04:30:00,76.3,64.5,29.76,NE,45,3.4,6.3,67,0.00,,,0.00,WUHU216HW,2013-04-12 01:30:00,
2013-04-12 04:35:00,76.3,65.0,29.76,North,0,1.8,6.0,68,0.00,,,0.00,WUHU216HW,2013-04-12 01:35:00,
2013-04-12 04:40:00,76.3,65.0,29.76,NNE,23,6.0,6.0,68,0.00,,,0.00,WUHU216HW,2013-04-12 01:40:00,
2013-04-12 04:45:00,76.3,65.0,29.77,East,90,2.2,6.0,68,0.00,,,0.00,WUHU216HW,2013-04-12 01:45:00,
2013-04-12 04:50:00,76.3,65.0,29.77,NNE,23,2.2,6.0,68,0.00,,,0.00,WUHU216HW,2013-04-12 01:50:00,
2013-04-12 04:55:00,76.3,65.0,29.77,NNE,23,4.7,5.1,68,0.00,,,0.00,WUHU216HW,2013-04-12 01:55:00,
2013-04-12 05:00:00,76.3,65.0,29.77,ENE,68,4.3,6.0,68,0.00,,,0.00,WUHU216HW,2013-04-12 02:00:00,
2013-04-12 05:05:00,76.3,65.0,29.77,ENE,68,2.7,6.0,68,0.00,,,0.00,WUHU216HW,2013-04-12 02:05:00,
2013-04-12 05:10:00,76.3,65.0,29.77,ENE,68,2.0,6.9,68,0.00,,,0.00,WUHU216HW,2013-04-12 02:10:00,
2013-04-12 05:15:00,76.3,65.0,29.77,NNE,23,6.3,6.9,68,0.00,,,0.00,WUHU216HW,2013-04-12 02:15:00,
2013-04-12 05:20:00,76.3,65.0,29.77,NE,45,3.4,6.3,68,0.00,,,0.00,WUHU216HW,2013-04-12 02:20:00,
2013-04-12 05:25:00,76.3,65.0,29.77,NE,45,3.4,5.4,68,0.00,,,0.00,WUHU216HW,2013-04-12 02:25:00,
2013-04-12 05:30:00,76.3,65.0,29.77,ENE,68,2.5,5.8,68,0.00,,,0.00,WUHU216HW,2013-04-12 02:30:00,
2013-04-12 05:35:00,76.3,65.0,29.77,ENE,68,3.8,5.8,68,0.00,,,0.00,WUHU216HW,2013-04-12 02:35:00,
2013-04-12 05:40:00,76.5,65.6,29.78,ENE,68,3.4,5.6,69,0.00,,,0.00,WUHU216HW,2013-04-12 02:40:00,
2013-04-12 05:45:00,76.5,65.6,29.78,NE,45,3.6,5.6,69,0.00,,,0.00,WUHU216HW,2013-04-12 02:45:00,
2013-04-12 05:50:00,76.5,65.6,29.78,ENE,68,3.4,5.4,69,0.00,,,0.00,WUHU216HW,2013-04-12 02:50:00,
2013-04-12 05:55:00,76.7,65.8,29.78,NE,45,3.1,5.6,69,0.00,,,0.00,WUHU216HW,2013-04-12 02:55:00,
2013-04-12 06:00:00,76.7,65.8,29.79,ESE,113,3.4,5.6,69,0.00,,,0.00,WUHU216HW,2013-04-12 03:00:00,
2013-04-12 06:05:00,76.9,66.0,29.79,ENE,68,3.1,5.4,69,0.00,,,0.00,WUHU216HW,2013-04-12 03:05:00,
2013-04-12 06:10:00,77.0,66.2,29.79,ESE,113,4.7,5.4,69,0.00,,,0.00,WUHU216HW,2013-04-12 03:10:00,
2013-04-12 06:15:00,77.4,66.1,29.79,East,90,3.6,5.4,68,0.00,,,0.00,WUHU216HW,2013-04-12 03:15:00,
2013-04-12 06:20:00,77.8,66.3,29.80,ESE,113,3.4,5.4,68,0.00,,,0.00,WUHU216HW,2013-04-12 03:20:00,
2013-04-12 06:25:00,78.1,66.7,29.79,ESE,113,3.8,5.4,68,0.00,,,0.00,WUHU216HW,2013-04-12 03:25:00,
2013-04-12 06:30:00,78.5,67.1,29.80,East,90,4.7,5.8,68,0.00,,,0.00,WUHU216HW,2013-04-12 03:30:00,
2013-04-12 06:35:00,78.8,67.3,29.80,ESE,113,3.4,7.2,68,0.00,,,0.00,WUHU216HW,2013-04-12 03:35:00,
2013-04-12 06:40:00,79.0,67.2,29.80,ESE,113,4.0,7.2,67,0.00,,,0.00,WUHU216HW,2013-04-12 03:40:00,
2013-04-12 06:45:00,79.4,67.4,29.80,East,90,5.4,6.5,67,0.00,,,0.00,WUHU216HW,2013-04-12 03:45:00,
2013-04-12 06:50:00,79.9,67.5,29.80,ENE,68,3.4,6.9,66,0.00,,,0.00,WUHU216HW,2013-04-12 03:50:00,
2013-04-12 06:55:00,80.6,68.2,29.80,ENE,68,3.8,6.9,66,0.00,,,0.00,WUHU216HW,2013-04-12 03:55:00,
2013-04-12 07:00:00,80.8,68.0,29.80,East,90,3.4,6.5,65,0.00,,,0.00,WUHU216HW,2013-04-12 04:00:00,
2013-04-12 07:05:00,81.0,68.1,29.81,NE,45,4.7,7.2,65,0.00,,,0.00,WUHU216HW,2013-04-12 04:05:00,
2013-04-12 07:10:00,81.2,67.8,29.80,East,90,3.1,7.4,64,0.00,,,0.00,WUHU216HW,2013-04-12 04:10:00,
2013-04-12 07:15:00,81.4,67.1,29.81,ENE,68,6.7,7.4,62,0.00,,,0.00,WUHU216HW,2013-04-12 04:15:00,
2013-04-12 07:20:00,81.0,67.2,29.81,East,90,2.2,7.4,63,0.00,,,0.00,WUHU216HW,2013-04-12 04:20:00,
2013-04-12 07:25:00,81.0,67.2,29.81,ENE,68,3.1,6.7,63,0.00,,,0.00,WUHU216HW,2013-04-12 04:25:00,
2013-04-12 07:30:00,81.0,67.2,29.81,ESE,113,4.5,6.3,63,0.00,,,0.00,WUHU216HW,2013-04-12 04:30:00,
2013-04-12 07:35:00,81.0,67.2,29.81,ESE,113,5.6,6.5,63,0.00,,,0.00,WUHU216HW,2013-04-12 04:35:00,
2013-04-12 07:40:00,81.0,67.2,29.81,SE,135,6.0,7.8,63,0.00,,,0.00,WUHU216HW,2013-04-12 04:40:00,
2013-04-12 07:45:00,81.2,67.3,29.81,ESE,113,5.1,7.8,63,0.00,,,0.00,WUHU216HW,2013-04-12 04:45:00,
2013-04-12 07:50:00,81.2,67.8,29.82,SE,135,3.4,8.3,64,0.00,,,0.00,WUHU216HW,2013-04-12 04:50:00,
2013-04-12 07:55:00,81.2,67.3,29.82,SE,135,6.3,8.3,63,0.00,,,0.00,WUHU216HW,2013-04-12 04:55:00,
2013-04-12 08:00:00,81.4,67.5,29.82,ESE,113,8.3,8.3,63,0.00,,,0.00,WUHU216HW,2013-04-12 05:00:00,
2013-04-12 08:05:00,81.5,67.2,29.82,SE,135,5.6,8.3,62,0.00,,,0.00,WUHU216HW,2013-04-12 05:05:00,
2013-04-12 08:10:00,81.7,67.0,29.83,ESE,113,6.3,8.5,61,0.00,,,0.00,WUHU216HW,2013-04-12 05:10:00,
2013-04-12 08:15:00,81.7,67.4,29.82,SE,135,5.6,8.5,62,0.00,,,0.00,WUHU216HW,2013-04-12 05:15:00,
2013-04-12 08:20:00,81.7,67.4,29.83,SE,135,7.4,8.5,62,0.00,,,0.00,WUHU216HW,2013-04-12 05:20:00,
2013-04-12 08:25:00,81.9,68.1,29.82,SSE,158,5.6,8.5,63,0.00,,,0.00,WUHU216HW,2013-04-12 05:25:00,
2013-04-12 08:30:00,82.1,67.2,29.83,ESE,113,7.2,8.5,61,0.00,,,0.00,WUHU216HW,2013-04-12 05:30:00,
2013-04-12 08:35:00,82.3,67.0,29.83,ESE,113,3.4,8.5,60,0.00,,,0.00,WUHU216HW,2013-04-12 05:35:00,
2013-04-12 08:40:00,82.4,67.1,29.83,SE,135,5.4,7.8,60,0.00,,,0.00,WUHU216HW,2013-04-12 05:40:00,
2013-04-12 08:45:00,82.6,66.8,29.83,East,90,4.7,7.6,59,0.00,,,0.00,WUHU216HW,2013-04-12 05:45:00,
2013-04-12 08:50:00,83.0,67.1,29.83,SE,135,6.0,7.6,59,0.00,,,0.00,WUHU216HW,2013-04-12 05:50:00,
2013-04-12 08:55:00,83.2,66.8,29.83,ESE,113,4.0,7.6,58,0.00,,,0.00,WUHU216HW,2013-04-12 05:55:00,
2013-04-12 09:00:00,83.3,67.5,29.84,SSE,158,4.0,7.6,59,0.00,,,0.00,WUHU216HW,2013-04-12 06:00:00,
2013-04-12 09:05:00,83.3,67.0,29.84,SSE,158,5.4,8.3,58,0.00,,,0.00,WUHU216HW,2013-04-12 06:05:00,
2013-04-12 09:10:00,83.5,68.2,29.85,South,180,5.4,8.5,60,0.00,,,0.00,WUHU216HW,2013-04-12 06:10:00,
2013-04-12 09:15:00,83.7,68.4,29.84,ESE,113,4.5,8.5,60,0.00,,,0.00,WUHU216HW,2013-04-12 06:15:00,
2013-04-12 09:20:00,83.9,68.0,29.84,ESE,113,4.7,8.1,59,0.00,,,0.00,WUHU216HW,2013-04-12 06:20:00,
2013-04-12 09:25:00,84.1,68.2,29.84,SE,135,3.4,8.1,59,0.00,,,0.00,WUHU216HW,2013-04-12 06:25:00,
2013-04-12 09:30:00,84.1,67.7,29.84,SSE,158,5.6,6.3,58,0.00,,,0.00,WUHU216HW,2013-04-12 06:30:00,
2013-04-12 09:35:00,84.1,67.7,29.84,SSE,158,4.5,7.6,58,0.00,,,0.00,WUHU216HW,2013-04-12 06:35:00,
2013-04-12 09:40:00,84.1,67.2,29.84,SE,135,6.3,7.6,57,0.00,,,0.00,WUHU216HW,2013-04-12 06:40:00,
2013-04-12 09:45:00,84.1,65.6,29.84,SSE,158,7.4,7.8,54,0.00,,,0.00,WUHU216HW,2013-04-12 06:45:00,
2013-04-12 09:50:00,83.9,66.0,29.84,ESE,113,2.7,8.5,55,0.00,,,0.00,WUHU216HW,2013-04-12 06:50:00,
2013-04-12 09:55:00,84.2,65.3,29.84,ESE,113,6.9,8.5,53,0.00,,,0.00,WUHU216HW,2013-04-12 06:55:00,
2013-04-12 10:00:00,84.6,65.6,29.84,ESE,113,6.0,7.2,53,0.00,,,0.00,WUHU216HW,2013-04-12 07:00:00,
2013-04-12 10:05:00,84.6,65.1,29.84,SE,135,5.1,7.4,52,0.00,,,0.00,WUHU216HW,2013-04-12 07:05:00,
2013-04-12 10:10:00,84.6,62.2,29.84,SSE,158,3.8,8.9,47,0.00,,,0.00,WUHU216HW,2013-04-12 07:10:00,
2013-04-12 10:15:00,85.0,62.5,29.84,ESE,113,3.1,8.9,47,0.00,,,0.00,WUHU216HW,2013-04-12 07:15:00,
2013-04-12 10:20:00,85.3,63.5,29.84,ESE,113,4.7,7.8,48,0.00,,,0.00,WUHU216HW,2013-04-12 07:20:00,
2013-04-12 10:25:00,85.3,62.8,29.84,SE,135,4.0,6.3,47,0.00,,,0.00,WUHU216HW,2013-04-12 07:25:00,
2013-04-12 10:30:00,85.7,64.4,29.83,East,90,6.3,6.3,49,0.00,,,0.00,WUHU216HW,2013-04-12 07:30:00,
2013-04-12 10:35:00,85.7,63.7,29.83,East,90,6.3,6.3,48,0.00,,,0.00,WUHU216HW,2013-04-12 07:35:00,
2013-04-12 10:40:00,85.3,64.7,29.83,ENE,68,4.9,6.3,50,0.00,,,0.00,WUHU216HW,2013-04-12 07:40:00,
2013-04-12 10:45:00,85.1,63.9,29.83,SE,135,4.0,6.3,49,0.00,,,0.00,WUHU216HW,2013-04-12 07:45:00,
2013-04-12 10:50:00,85.3,64.1,29.82,East,90,5.6,6.3,49,0.00,,,0.00,WUHU216HW,2013-04-12 07:50:00,
2013-04-12 10:55:00,85.5,63.6,29.82,ENE,68,4.0,6.9,48,0.00,,,0.00,WUHU216HW,2013-04-12 07:55:00,
2013-04-12 11:00:00,85.7,63.1,29.82,ESE,113,6.7,7.2,47,0.00,,,0.00,WUHU216HW,2013-04-12 08:00:00,
2013-04-12 11:05:00,85.9,63.9,29.82,ESE,113,4.3,7.2,48,0.00,,,0.00,WUHU216HW,2013-04-12 08:05:00,
2013-04-12 11:10:00,85.9,62.6,29.82,ESE,113,4.0,6.9,46,0.00,,,0.00,WUHU216HW,2013-04-12 08:10:00,
2013-04-12 11:15:00,86.4,63.8,29.82,SSE,158,4.0,6.9,47,0.00,,,0.00,WUHU216HW,2013-04-12 08:15:00,
2013-04-12 11:20:00,86.8,63.5,29.82,SE,135,3.6,6.9,46,0.00,,,0.00,WUHU216HW,2013-04-12 08:20:00,
2013-04-12 11:25:00,87.1,63.8,29.82,East,90,6.5,6.9,46,0.00,,,0.00,WUHU216HW,2013-04-12 08:25:00,
2013-04-12 11:30:00,86.8,63.5,29.82,SE,135,5.1,7.2,46,0.00,,,0.00,WUHU216HW,2013-04-12 08:30:00,
2013-04-12 11:35:00,86.4,64.5,29.81,East,90,4.3,7.2,48,0.00,,,0.00,WUHU216HW,2013-04-12 08:35:00,
2013-04-12 11:41:00,86.4,63.8,29.81,ENE,68,5.4,8.1,47,0.00,,,0.00,WUHU216HW,2013-04-12 08:41:00,
2013-04-12 11:46:00,86.0,64.7,29.81,ESE,113,4.7,8.1,49,0.00,,,0.00,WUHU216HW,2013-04-12 08:46:00,
2013-04-12 11:50:00,86.4,64.5,29.81,ESE,113,7.6,7.6,48,0.00,,,0.00,WUHU216HW,2013-04-12 08:50:00,
2013-04-12 11:55:00,86.6,63.9,29.81,East,90,5.8,7.6,47,0.00,,,0.00,WUHU216HW,2013-04-12 08:55:00,
2013-04-12 12:00:00,86.4,65.7,29.81,SE,135,3.6,7.6,50,0.00,,,0.00,WUHU216HW,2013-04-12 09:00:00,
2013-04-12 12:05:00,86.9,65.5,29.81,East,90,6.9,6.9,49,0.00,,,0.00,WUHU216HW,2013-04-12 09:05:00,
2013-04-12 12:11:00,86.9,64.9,29.81,ESE,113,5.4,6.9,48,0.00,,,0.00,WUHU216HW,2013-04-12 09:11:00,
2013-04-12 12:16:00,86.9,64.9,29.81,ESE,113,6.5,8.3,48,0.00,,,0.00,WUHU216HW,2013-04-12 09:16:00,
2013-04-12 12:21:00,86.2,64.3,29.80,ENE,68,4.7,8.3,48,0.00,,,0.00,WUHU216HW,2013-04-12 09:21:00,
2013-04-12 12:26:00,86.2,63.0,29.80,SE,135,2.0,8.1,46,0.00,,,0.00,WUHU216HW,2013-04-12 09:26:00,
2013-04-12 12:31:00,86.4,63.8,29.80,SSE,158,2.2,6.9,47,0.00,,,0.00,WUHU216HW,2013-04-12 09:31:00,
2013-04-12 12:36:00,86.8,64.1,29.80,ENE,68,6.0,8.5,47,0.00,,,0.00,WUHU216HW,2013-04-12 09:36:00,
2013-04-12 12:41:00,86.6,63.9,29.80,East,90,5.4,8.5,47,0.00,,,0.00,WUHU216HW,2013-04-12 09:41:00,
2013-04-12 12:46:00,86.8,64.7,29.79,ESE,113,5.4,6.9,48,0.00,,,0.00,WUHU216HW,2013-04-12 09:46:00,
2013-04-12 12:51:00,86.6,65.2,29.79,East,90,7.4,7.6,49,0.00,,,0.00,WUHU216HW,2013-04-12 09:51:00,
2013-04-12 12:56:00,86.8,66.0,29.79,ENE,68,4.3,8.5,50,0.00,,,0.00,WUHU216HW,2013-04-12 09:56:00,
2013-04-12 13:01:00,86.8,66.0,29.79,ENE,68,5.1,8.5,50,0.00,,,0.00,WUHU216HW,2013-04-12 10:01:00,
2013-04-12 13:06:00,86.8,65.3,29.79,ESE,113,6.7,8.9,49,0.00,,,0.00,WUHU216HW,2013-04-12 10:06:00,
2013-04-12 13:11:00,86.9,65.5,29.79,East,90,6.3,8.9,49,0.00,,,0.00,WUHU216HW,2013-04-12 10:11:00,
2013-04-12 13:16:00,86.8,65.3,29.79,ESE,113,6.3,8.5,49,0.00,,,0.00,WUHU216HW,2013-04-12 10:16:00,
2013-04-12 13:21:00,87.1,65.1,29.78,ENE,68,6.9,7.6,48,0.00,,,0.00,WUHU216HW,2013-04-12 10:21:00,
2013-04-12 13:26:00,87.3,65.9,29.78,ENE,68,6.3,7.6,49,0.00,,,0.00,WUHU216HW,2013-04-12 10:26:00,
2013-04-12 13:31:00,86.9,65.5,29.78,ESE,113,5.6,8.3,49,0.00,,,0.00,WUHU216HW,2013-04-12 10:31:00,
2013-04-12 13:36:00,87.3,64.6,29.78,ENE,68,5.6,9.2,47,0.00,,,0.00,WUHU216HW,2013-04-12 10:36:00,
2013-04-12 13:41:00,87.5,64.7,29.78,East,90,7.8,9.2,47,0.00,,,0.00,WUHU216HW,2013-04-12 10:41:00,
2013-04-12 13:46:00,87.8,65.1,29.78,ESE,113,5.6,7.8,47,0.00,,,0.00,WUHU216HW,2013-04-12 10:46:00,
2013-04-12 13:51:00,87.5,64.7,29.78,ENE,68,6.5,8.5,47,0.00,,,0.00,WUHU216HW,2013-04-12 10:51:00,
2013-04-12 13:56:00,87.5,64.7,29.78,East,90,8.7,9.4,47,0.00,,,0.00,WUHU216HW,2013-04-12 10:56:00,
2013-04-12 14:01:00,87.7,64.9,29.78,ESE,113,9.8,10.1,47,0.00,,,0.00,WUHU216HW,2013-04-12 11:01:00,
2013-04-12 14:06:00,87.8,65.7,29.77,East,90,8.1,10.1,48,0.00,,,0.00,WUHU216HW,2013-04-12 11:06:00,
2013-04-12 14:11:00,88.0,65.3,29.77,ESE,113,5.1,9.8,47,0.00,,,0.00,WUHU216HW,2013-04-12 11:11:00,
2013-04-12 14:16:00,88.2,65.3,29.77,ESE,113,7.8,9.8,47,0.00,,,0.00,WUHU216HW,2013-04-12 11:16:00,
2013-04-12 14:21:00,88.0,65.9,29.77,ESE,113,7.4,9.8,48,0.00,,,0.00,WUHU216HW,2013-04-12 11:21:00,
2013-04-12 14:26:00,87.8,67.0,29.77,ESE,113,5.6,9.8,50,0.00,,,0.00,WUHU216HW,2013-04-12 11:26:00,
2013-04-12 14:31:00,87.8,67.0,29.77,East,90,6.5,9.8,50,0.00,,,0.00,WUHU216HW,2013-04-12 11:31:00,
2013-04-12 14:36:00,88.0,67.2,29.77,East,90,6.0,8.7,50,0.00,,,0.00,WUHU216HW,2013-04-12 11:36:00,
2013-04-12 14:41:00,88.0,67.2,29.77,NE,45,6.0,8.3,50,0.00,,,0.00,WUHU216HW,2013-04-12 11:41:00,
2013-04-12 14:46:00,87.8,65.1,29.77,East,90,8.1,10.3,47,0.00,,,0.00,WUHU216HW,2013-04-12 11:46:00,
2013-04-12 14:51:00,87.8,67.0,29.77,ENE,68,6.3,10.3,50,0.00,,,0.00,WUHU216HW,2013-04-12 11:51:00,
2013-04-12 14:56:00,87.7,66.2,29.77,ENE,68,6.3,9.2,49,0.00,,,0.00,WUHU216HW,2013-04-12 11:56:00,
2013-04-12 15:01:00,88.0,67.2,29.77,ENE,68,7.2,9.2,50,0.00,,,0.00,WUHU216HW,2013-04-12 12:01:00,
2013-04-12 15:06:00,88.0,67.2,29.77,ESE,113,7.6,9.4,50,0.00,,,0.00,WUHU216HW,2013-04-12 12:06:00,
2013-04-12 15:11:00,87.5,67.1,29.77,ESE,113,6.5,11.0,51,0.00,,,0.00,WUHU216HW,2013-04-12 12:11:00,
2013-04-12 15:16:00,87.5,67.1,29.77,East,90,7.8,11.0,51,0.00,,,0.00,WUHU216HW,2013-04-12 12:16:00,
2013-04-12 15:21:00,87.3,66.5,29.77,ENE,68,7.6,10.5,50,0.00,,,0.00,WUHU216HW,2013-04-12 12:21:00,
2013-04-12 15:26:00,87.3,67.5,29.77,NE,45,5.8,10.5,52,0.00,,,0.00,WUHU216HW,2013-04-12 12:26:00,
2013-04-12 15:31:00,87.3,67.5,29.77,ESE,113,7.2,11.0,52,0.00,,,0.00,WUHU216HW,2013-04-12 12:31:00,
2013-04-12 15:36:00,87.1,67.4,29.77,ENE,68,8.7,11.0,52,0.00,,,0.00,WUHU216HW,2013-04-12 12:36:00,
2013-04-12 15:41:00,86.8,66.5,29.76,East,90,5.4,11.4,51,0.00,,,0.00,WUHU216HW,2013-04-12 12:41:00,
2013-04-12 15:46:00,86.4,66.2,29.77,ENE,68,9.6,11.4,51,0.00,,,0.00,WUHU216HW,2013-04-12 12:46:00,
2013-04-12 15:51:00,86.2,66.5,29.77,East,90,7.2,10.7,52,0.00,,,0.00,WUHU216HW,2013-04-12 12:51:00,
2013-04-12 15:56:00,86.2,67.1,29.77,East,90,7.2,10.7,53,0.00,,,0.00,WUHU216HW,2013-04-12 12:56:00,
2013-04-12 16:01:00,86.0,66.9,29.77,ENE,68,9.2,11.0,53,0.00,,,0.00,WUHU216HW,2013-04-12 13:01:00,
2013-04-12 16:06:00,86.2,67.6,29.76,ESE,113,6.9,11.0,54,0.00,,,0.00,WUHU216HW,2013-04-12 13:06:00,
2013-04-12 16:11:00,86.4,66.7,29.76,NE,45,8.3,10.5,52,0.00,,,0.00,WUHU216HW,2013-04-12 13:11:00,
2013-04-12 16:16:00,86.4,67.2,29.77,ESE,113,6.3,9.8,53,0.00,,,0.00,WUHU216HW,2013-04-12 13:16:00,
2013-04-12 16:22:00,86.2,66.5,29.76,ESE,113,8.5,10.5,52,0.00,,,0.00,WUHU216HW,2013-04-12 13:22:00,
2013-04-12 16:27:00,86.2,66.5,29.77,ENE,68,5.4,10.5,52,0.00,,,0.00,WUHU216HW,2013-04-12 13:27:00,
2013-04-12 16:32:00,86.4,67.2,29.77,East,90,6.3,9.6,53,0.00,,,0.00,WUHU216HW,2013-04-12 13:32:00,
2013-04-12 16:37:00,86.2,67.1,29.77,East,90,9.4,9.4,53,0.00,,,0.00,WUHU216HW,2013-04-12 13:37:00,
2013-04-12 16:42:00,86.4,67.2,29.77,ENE,68,7.6,9.4,53,0.00,,,0.00,WUHU216HW,2013-04-12 13:42:00,
2013-04-12 16:47:00,86.0,66.9,29.77,East,90,6.9,10.1,53,0.00,,,0.00,WUHU216HW,2013-04-12 13:47:00,
2013-04-12 16:52:00,86.0,67.4,29.77,NNE,23,7.2,10.1,54,0.00,,,0.00,WUHU216HW,2013-04-12 13:52:00,
2013-04-12 16:57:00,85.9,67.2,29.77,ESE,113,5.6,9.6,54,0.00,,,0.00,WUHU216HW,2013-04-12 13:57:00,
2013-04-12 17:02:00,85.7,67.2,29.77,NE,45,6.9,9.6,54,0.00,,,0.00,WUHU216HW,2013-04-12 14:02:00,
2013-04-12 17:07:00,85.3,67.3,29.76,ESE,113,7.6,9.2,55,0.00,,,0.00,WUHU216HW,2013-04-12 14:07:00,
2013-04-12 17:12:00,85.0,67.5,29.77,East,90,5.4,9.2,56,0.00,,,0.00,WUHU216HW,2013-04-12 14:12:00,
2013-04-12 17:17:00,84.8,67.3,29.76,East,90,7.6,8.7,56,0.00,,,0.00,WUHU216HW,2013-04-12 14:17:00,
2013-04-12 17:22:00,84.2,67.4,29.77,East,90,6.3,9.2,57,0.00,,,0.00,WUHU216HW,2013-04-12 14:22:00,
2013-04-12 17:27:00,83.9,67.5,29.77,East,90,6.9,9.2,58,0.00,,,0.00,WUHU216HW,2013-04-12 14:27:00,
2013-04-12 17:32:00,83.7,67.3,29.77,East,90,6.9,9.2,58,0.00,,,0.00,WUHU216HW,2013-04-12 14:32:00,
2013-04-12 17:38:00,83.3,67.5,29.77,ENE,68,5.4,9.2,59,0.00,,,0.00,WUHU216HW,2013-04-12 14:38:00,
2013-04-12 17:43:00,83.2,67.3,29.77,ESE,113,5.1,7.6,59,0.00,,,0.00,WUHU216HW,2013-04-12 14:43:00,
2013-04-12 17:48:00,83.0,67.1,29.77,East,90,6.7,8.7,59,0.00,,,0.00,WUHU216HW,2013-04-12 14:48:00,
2013-04-12 17:53:00,82.8,67.0,29.77,East,90,6.3,8.7,59,0.00,,,0.00,WUHU216HW,2013-04-12 14:53:00,
2013-04-12 17:58:00,82.8,67.0,29.77,ESE,113,6.7,8.3,59,0.00,,,0.00,WUHU216HW,2013-04-12 14:58:00,
2013-04-12 18:03:00,82.6,66.8,29.77,ENE,68,5.4,9.2,59,0.00,,,0.00,WUHU216HW,2013-04-12 15:03:00,
2013-04-12 18:08:00,82.4,66.6,29.77,East,90,6.3,9.2,59,0.00,,,0.00,WUHU216HW,2013-04-12 15:08:00,
2013-04-12 18:13:00,82.4,66.6,29.77,ESE,113,7.6,8.3,59,0.00,,,0.00,WUHU216HW,2013-04-12 15:13:00,
2013-04-12 18:18:00,82.4,66.6,29.77,ENE,68,7.8,8.3,59,0.00,,,0.00,WUHU216HW,2013-04-12 15:18:00,
2013-04-12 18:23:00,82.4,66.1,29.77,East,90,5.4,8.3,58,0.00,,,0.00,WUHU216HW,2013-04-12 15:23:00,
2013-04-12 18:28:00,82.4,66.6,29.77,ESE,113,5.6,8.3,59,0.00,,,0.00,WUHU216HW,2013-04-12 15:28:00,
2013-04-12 18:33:00,82.4,66.1,29.77,East,90,7.6,8.1,58,0.00,,,0.00,WUHU216HW,2013-04-12 15:33:00,
2013-04-12 18:38:00,82.4,66.1,29.77,NE,45,5.6,8.1,58,0.00,,,0.00,WUHU216HW,2013-04-12 15:38:00,
2013-04-12 18:43:00,82.3,66.0,29.77,East,90,5.4,8.1,58,0.00,,,0.00,WUHU216HW,2013-04-12 15:43:00,
2013-04-12 18:48:00,82.1,65.8,29.77,ENE,68,6.5,9.2,58,0.00,,,0.00,WUHU216HW,2013-04-12 15:48:00,
2013-04-12 18:53:00,82.1,65.8,29.78,East,90,5.4,9.2,58,0.00,,,0.00,WUHU216HW,2013-04-12 15:53:00,
2013-04-12 18:58:00,82.1,66.3,29.77,ENE,68,6.3,8.5,59,0.00,,,0.00,WUHU216HW,2013-04-12 15:58:00,
2013-04-12 19:03:00,82.1,66.3,29.78,ENE,68,6.5,8.5,59,0.00,,,0.00,WUHU216HW,2013-04-12 16:03:00,
2013-04-12 19:08:00,81.9,66.7,29.78,ENE,68,5.4,8.7,60,0.00,,,0.00,WUHU216HW,2013-04-12 16:08:00,
2013-04-12 19:13:00,81.9,66.2,29.78,ESE,113,7.2,8.7,59,0.00,,,0.00,WUHU216HW,2013-04-12 16:13:00,
2013-04-12 19:18:00,81.9,66.2,29.78,East,90,5.4,8.5,59,0.00,,,0.00,WUHU216HW,2013-04-12 16:18:00,
2013-04-12 19:23:00,81.7,66.5,29.78,ENE,68,7.2,8.5,60,0.00,,,0.00,WUHU216HW,2013-04-12 16:23:00,
2013-04-12 19:28:00,81.7,66.5,29.78,ENE,68,6.7,8.1,60,0.00,,,0.00,WUHU216HW,2013-04-12 16:28:00,
2013-04-12 19:33:00,81.7,66.5,29.78,ESE,113,6.0,8.5,60,0.00,,,0.00,WUHU216HW,2013-04-12 16:33:00,
2013-04-12 19:38:00,81.7,66.5,29.78,ESE,113,4.7,8.5,60,0.00,,,0.00,WUHU216HW,2013-04-12 16:38:00,
2013-04-12 19:43:00,81.7,66.5,29.78,ESE,113,5.4,8.3,60,0.00,,,0.00,WUHU216HW,2013-04-12 16:43:00,
2013-04-12 19:48:00,81.7,66.5,29.79,ESE,113,8.3,8.5,60,0.00,,,0.00,WUHU216HW,2013-04-12 16:48:00,
2013-04-12 19:53:00,81.5,66.3,29.79,ESE,113,8.5,8.9,60,0.00,,,0.00,WUHU216HW,2013-04-12 16:53:00,
2013-04-12 19:58:00,81.5,66.3,29.79,East,90,5.6,8.9,60,0.00,,,0.00,WUHU216HW,2013-04-12 16:58:00,
2013-04-12 20:03:00,81.5,66.3,29.79,East,90,6.9,8.1,60,0.00,,,0.00,WUHU216HW,2013-04-12 17:03:00,
2013-04-12 20:08:00,81.4,66.6,29.79,ENE,68,7.6,9.6,61,0.00,,,0.00,WUHU216HW,2013-04-12 17:08:00,
2013-04-12 20:13:00,81.4,66.6,29.79,ESE,113,5.4,9.6,61,0.00,,,0.00,WUHU216HW,2013-04-12 17:13:00,
2013-04-12 20:18:00,81.4,66.6,29.80,East,90,5.8,8.9,61,0.00,,,0.00,WUHU216HW,2013-04-12 17:18:00,
2013-04-12 20:23:00,81.4,66.6,29.80,ESE,113,6.3,8.9,61,0.00,,,0.00,WUHU216HW,2013-04-12 17:23:00,
2013-04-12 20:28:00,81.4,66.6,29.80,ESE,113,6.3,9.2,61,0.00,,,0.00,WUHU216HW,2013-04-12 17:28:00,
2013-04-12 20:33:00,81.2,66.4,29.80,East,90,7.4,9.2,61,0.00,,,0.00,WUHU216HW,2013-04-12 17:33:00,
2013-04-12 20:38:00,81.2,66.4,29.80,East,90,9.2,9.2,61,0.00,,,0.00,WUHU216HW,2013-04-12 17:38:00,
2013-04-12 20:43:00,81.2,66.0,29.80,East,90,6.0,9.8,60,0.00,,,0.00,WUHU216HW,2013-04-12 17:43:00,
2013-04-12 20:48:00,81.2,66.0,29.80,ENE,68,9.2,9.8,60,0.00,,,0.00,WUHU216HW,2013-04-12 17:48:00,
2013-04-12 20:53:00,81.2,66.0,29.80,East,90,6.7,9.2,60,0.00,,,0.00,WUHU216HW,2013-04-12 17:53:00,
2013-04-12 20:58:00,81.2,66.0,29.81,East,90,8.1,11.2,60,0.00,,,0.00,WUHU216HW,2013-04-12 17:58:00,
2013-04-12 21:04:00,81.2,66.0,29.81,East,90,7.2,11.2,60,0.00,,,0.00,WUHU216HW,2013-04-12 18:04:00,
2013-04-12 21:09:00,81.0,65.9,29.81,East,90,11.2,11.2,60,0.00,,,0.00,WUHU216HW,2013-04-12 18:09:00,
2013-04-12 21:14:00,81.0,65.9,29.81,ESE,113,5.6,11.2,60,0.00,,,0.00,WUHU216HW,2013-04-12 18:14:00,
2013-04-12 21:20:00,81.0,66.3,29.81,ESE,113,6.0,9.8,61,0.00,,,0.00,WUHU216HW,2013-04-12 18:20:00,
2013-04-12 21:25:00,81.0,66.8,29.81,ENE,68,8.9,9.8,62,0.00,,,0.00,WUHU216HW,2013-04-12 18:25:00,
2013-04-12 21:31:00,81.0,67.2,29.81,East,90,6.7,9.8,63,0.00,,,0.00,WUHU216HW,2013-04-12 18:31:00,
2013-04-12 21:37:00,80.8,67.1,29.81,ENE,68,6.3,9.8,63,0.00,,,0.00,WUHU216HW,2013-04-12 18:37:00,
2013-04-12 21:43:00,80.8,68.0,29.81,ESE,113,8.5,9.8,65,0.00,,,0.00,WUHU216HW,2013-04-12 18:43:00,
2013-04-12 21:49:00,80.6,68.2,29.81,East,90,6.9,10.1,66,0.00,,,0.00,WUHU216HW,2013-04-12 18:49:00,
2013-04-12 21:55:00,80.6,68.2,29.80,ESE,113,6.0,11.0,66,0.00,,,0.00,WUHU216HW,2013-04-12 18:55:00,
2013-04-12 22:01:00,80.5,68.9,29.80,ESE,113,6.7,9.2,68,0.00,,,0.00,WUHU216HW,2013-04-12 19:01:00,
2013-04-12 22:07:00,80.5,69.4,29.81,ENE,68,8.5,10.3,69,0.00,,,0.00,WUHU216HW,2013-04-12 19:07:00,
2013-04-12 22:13:00,80.3,69.2,29.81,ESE,113,11.6,11.6,69,0.00,,,0.00,WUHU216HW,2013-04-12 19:13:00,
2013-04-12 22:26:00,80.1,69.8,29.80,SE,135,6.9,10.3,71,0.00,,,0.00,WUHU216HW,2013-04-12 19:26:00,
2013-04-12 22:31:00,79.9,69.7,29.80,ESE,113,6.9,9.8,71,0.00,,,0.00,WUHU216HW,2013-04-12 19:31:00,
2013-04-12 22:36:00,79.9,69.7,29.80,ESE,113,8.5,9.8,71,0.00,,,0.00,WUHU216HW,2013-04-12 19:36:00,
2013-04-12 22:41:00,79.7,69.5,29.80,ESE,113,6.3,9.8,71,0.00,,,0.00,WUHU216HW,2013-04-12 19:41:00,
2013-04-12 22:46:00,79.7,69.5,29.80,ESE,113,5.6,9.8,71,0.00,,,0.00,WUHU216HW,2013-04-12 19:46:00,
2013-04-12 22:52:00,79.7,69.5,29.80,ESE,113,7.4,9.8,71,0.00,,,0.00,WUHU216HW,2013-04-12 19:52:00,
2013-04-12 22:57:00,79.7,69.5,29.80,ESE,113,5.8,8.5,71,0.00,,,0.00,WUHU216HW,2013-04-12 19:57:00,
2013-04-12 23:02:00,79.7,69.5,29.80,East,90,8.1,9.6,71,0.00,,,0.00,WUHU216HW,2013-04-12 20:02:00,
2013-04-12 23:07:00,79.7,69.5,29.80,SE,135,6.3,9.6,71,0.00,,,0.00,WUHU216HW,2013-04-12 20:07:00,
2013-04-12 23:12:00,79.7,69.5,29.80,East,90,8.5,8.5,71,0.00,,,0.00,WUHU216HW,2013-04-12 20:12:00,
2013-04-12 23:17:00,79.7,69.5,29.80,ESE,113,5.6,8.5,71,0.00,,,0.00,WUHU216HW,2013-04-12 20:17:00,
2013-04-12 23:22:00,79.7,69.5,29.80,East,90,5.1,8.3,71,0.00,,,0.00,WUHU216HW,2013-04-12 20:22:00,
2013-04-12 23:27:00,79.7,69.5,29.80,East,90,6.0,7.6,71,0.00,,,0.00,WUHU216HW,2013-04-12 20:27:00,
2013-04-12 23:32:00,79.6,69.3,29.79,ENE,68,3.4,7.6,71,0.00,,,0.00,WUHU216HW,2013-04-12 20:32:00,
2013-04-12 23:37:00,79.6,69.3,29.79,East,90,5.8,6.7,71,0.00,,,0.00,WUHU216HW,2013-04-12 20:37:00,
2013-04-12 23:42:00,79.6,69.3,29.79,SE,135,3.4,6.7,71,0.00,,,0.00,WUHU216HW,2013-04-12 20:42:00,
2013-04-12 23:47:00,79.7,69.1,29.79,East,90,3.4,5.4,70,0.00,,,0.00,WUHU216HW,2013-04-12 20:47:00,
2013-04-12 23:52:00,79.9,69.7,29.78,East,90,6.0,6.3,71,0.00,,,0.00,WUHU216HW,2013-04-12 20:52:00,
2013-04-12 23:57:00,79.9,69.3,29.78,ENE,68,2.7,6.7,70,0.00,,,0.00,WUHU216HW,2013-04-12 20:57:00,